| time (UTC) | temp F | wind direction | speed knots | gust knots | rain 1hr in | rain 24hr in | rain mn in | humidity % | barometer mb |
| 20260503172647 | 73 | 5 | 3.5 | 9.6 | 0.00 | 0.00 | 0.00 | 31 | 1022.0 |
| 20260503172147 | 73 | 48 | 6.1 | 11.3 | 0.00 | 0.00 | 0.00 | 32 | 1022.0 |
| 20260503171647 | 73 | 67 | 2.6 | 6.1 | 0.00 | 0.00 | 0.00 | 32 | 1022.4 |
| 20260503171146 | 73 | 67 | 5.2 | 9.6 | 0.00 | 0.00 | 0.00 | 31 | 1022.7 |
| 20260503170646 | 73 | 52 | 3.5 | 10.4 | 0.00 | 0.00 | 0.00 | 32 | 1022.4 |
| 20260503170146 | 73 | 354 | 4.3 | 5.2 | 0.00 | 0.00 | 0.00 | 30 | 1022.4 |
| 20260503150647 | 73 | 44 | 5.2 | 11.3 | 0.00 | 0.00 | 0.00 | 33 | 1022.4 |
| 20260503150146 | 73 | 57 | 1.7 | 7.0 | 0.00 | 0.00 | 0.00 | 34 | 1022.4 |
| 20260503140147 | 71 | 64 | 3.5 | 7.0 | 0.00 | 0.00 | 0.00 | 47 | 1021.7 |
| 20260503131146 | 68 | 15 | 1.7 | 3.5 | 0.00 | 0.00 | 0.00 | 60 | 1021.3 |
| 20260503130647 | 67 | 38 | 0.0 | 2.6 | 0.00 | 0.00 | 0.00 | 61 | 1021.3 |
| 20260503130148 | 65 | 34 | 2.6 | 2.6 | 0.00 | 0.00 | 0.00 | 64 | 1021.3 |
| 20260503120147 | 57 | 15 | 0.0 | 0.9 | 0.00 | 0.00 | 0.00 | 77 | 1020.7 |
| 20260503110646 | 56 | 44 | 0.0 | 0.0 | 0.00 | 0.00 | 0.00 | 77 | 1020.3 |
| 20260503110146 | 56 | 44 | 0.0 | 0.0 | 0.00 | 0.00 | 0.00 | 77 | 1020.3 |
| 20260503100147 | 57 | 315 | 0.0 | 0.0 | 0.00 | 0.00 | 0.00 | 73 | 1020.3 |
| 20260503090153 | 66 | 13 | 4.3 | 5.2 | 0.00 | 0.00 | 0.00 | 51 | 1020.0 |
| 20260503081147 | 66 | 13 | 4.3 | 5.2 | 0.00 | 0.00 | 0.00 | 51 | 1019.6 |
| 20260503080646 | 66 | 13 | 4.3 | 5.2 | 0.00 | 0.00 | 0.00 | 51 | 1019.6 |
| 20260503080146 | 66 | 13 | 4.3 | 5.2 | 0.00 | 0.00 | 0.00 | 51 | 1019.6 |
| 20260503072646 | 66 | 13 | 4.3 | 5.2 | 0.00 | 0.00 | 0.00 | 51 | 1019.3 |
| 20260503072146 | 66 | 13 | 4.3 | 5.2 | 0.00 | 0.00 | 0.00 | 51 | 1019.3 |
| 20260503071648 | 66 | 9 | 3.5 | 4.3 | 0.00 | 0.00 | 0.00 | 49 | 1019.3 |
| 20260503071146 | 66 | 9 | 3.5 | 4.3 | 0.00 | 0.00 | 0.00 | 49 | 1019.0 |
| 20260503070646 | 66 | 9 | 3.5 | 4.3 | 0.00 | 0.00 | 0.00 | 49 | 1019.3 |
| 20260503070146 | 66 | 9 | 3.5 | 4.3 | 0.00 | 0.00 | 0.00 | 49 | 1019.3 |
| 20260503060146 | 67 | 353 | 4.3 | 7.8 | 0.00 | 0.00 | 0.00 | 47 | 1019.0 |
| 20260503054648 | 67 | 10 | 8.7 | 9.6 | 0.00 | 0.00 | 0.00 | 47 | 1019.0 |
| 20260503054146 | 67 | 31 | 6.1 | 7.0 | 0.00 | 0.00 | 0.00 | 48 | 1019.0 |
| 20260503053646 | 67 | 42 | 4.3 | 6.1 | 0.00 | 0.00 | 0.00 | 47 | 1019.0 |
| 20260503053147 | 67 | 34 | 3.5 | 5.2 | 0.00 | 0.00 | 0.00 | 47 | 1019.0 |
| 20260503052647 | 67 | 13 | 5.2 | 9.6 | 0.00 | 0.00 | 0.00 | 46 | 1019.0 |
| 20260503052147 | 67 | 6 | 3.5 | 7.0 | 0.00 | 0.00 | 0.00 | 47 | 1018.6 |
| 20260503051647 | 67 | 10 | 2.6 | 8.7 | 0.00 | 0.00 | 0.00 | 47 | 1019.0 |
| 20260503051146 | 68 | 12 | 3.5 | 7.0 | 0.00 | 0.00 | 0.00 | 46 | 1018.6 |
| 20260503050647 | 68 | 32 | 8.7 | 8.7 | 0.00 | 0.00 | 0.00 | 46 | 1019.0 |
| 20260503050154 | 68 | 0 | 2.6 | 10.4 | 0.00 | 0.00 | 0.00 | 47 | 1019.0 |
| 20260503045647 | 68 | 56 | 4.3 | 7.8 | 0.00 | 0.00 | 0.68 | 47 | 1019.0 |
| 20260503045146 | 68 | 338 | 5.2 | 7.8 | 0.00 | 0.00 | 0.68 | 47 | 1019.0 |
| 20260503044647 | 68 | 37 | 6.1 | 7.8 | 0.00 | 0.00 | 0.68 | 47 | 1019.0 |
| 20260503044146 | 68 | 26 | 4.3 | 7.0 | 0.00 | 0.00 | 0.68 | 47 | 1019.0 |
| 20260503043646 | 68 | 349 | 2.6 | 8.7 | 0.00 | 0.00 | 0.68 | 47 | 1019.0 |
| 20260503043147 | 68 | 331 | 2.6 | 7.8 | 0.00 | 0.00 | 0.68 | 45 | 1019.0 |
| 20260503042646 | 68 | 25 | 4.3 | 8.7 | 0.00 | 0.00 | 0.68 | 45 | 1019.0 |
| 20260503042147 | 68 | 41 | 4.3 | 9.6 | 0.00 | 0.00 | 0.68 | 45 | 1018.6 |
| 20260503041646 | 68 | 3 | 2.6 | 9.6 | 0.00 | 0.00 | 0.68 | 45 | 1018.6 |
| 20260503041146 | 68 | 30 | 4.3 | 5.2 | 0.00 | 0.00 | 0.68 | 45 | 1018.6 |
| 20260503040646 | 68 | 1 | 4.3 | 7.8 | 0.00 | 0.00 | 0.68 | 43 | 1018.6 |
| 20260503040146 | 68 | 26 | 7.8 | 11.3 | 0.00 | 0.00 | 0.68 | 43 | 1018.6 |
| 20260503035647 | 68 | 6 | 4.3 | 7.8 | 0.00 | 0.00 | 0.68 | 45 | 1018.3 |
| 20260503035146 | 68 | 2 | 5.2 | 9.6 | 0.00 | 0.00 | 0.68 | 45 | 1018.6 |
| 20260503034646 | 68 | 26 | 1.7 | 6.1 | 0.00 | 0.00 | 0.68 | 45 | 1018.3 |
| 20260503034148 | 69 | 27 | 4.3 | 7.8 | 0.00 | 0.00 | 0.68 | 44 | 1018.6 |
| 20260503033647 | 69 | 285 | 3.5 | 7.0 | 0.00 | 0.00 | 0.68 | 44 | 1018.6 |
| 20260503033146 | 69 | 6 | 7.0 | 10.4 | 0.00 | 0.00 | 0.68 | 44 | 1018.3 |
| 20260503032646 | 69 | 31 | 6.1 | 7.8 | 0.00 | 0.00 | 0.68 | 44 | 1018.3 |
| 20260503032146 | 69 | 10 | 9.6 | 11.3 | 0.00 | 0.00 | 0.68 | 43 | 1017.9 |
| 20260503031647 | 69 | 12 | 3.5 | 6.1 | 0.00 | 0.00 | 0.68 | 44 | 1018.3 |
| 20260503031146 | 69 | 6 | 6.1 | 9.6 | 0.00 | 0.00 | 0.68 | 43 | 1018.3 |
| 20260503030646 | 69 | 3 | 7.8 | 11.3 | 0.00 | 0.00 | 0.68 | 43 | 1018.3 |
| 20260503030147 | 69 | 352 | 3.5 | 10.4 | 0.00 | 0.00 | 0.68 | 43 | 1018.3 |
| 20260503025646 | 69 | 14 | 7.8 | 7.8 | 0.00 | 0.00 | 0.68 | 42 | 1017.9 |
| 20260503025147 | 69 | 11 | 4.3 | 7.8 | 0.00 | 0.00 | 0.68 | 41 | 1017.9 |
| 20260503024646 | 69 | 41 | 2.6 | 7.8 | 0.00 | 0.00 | 0.68 | 42 | 1017.9 |
| 20260503024146 | 69 | 303 | 2.6 | 9.6 | 0.00 | 0.00 | 0.68 | 42 | 1017.9 |
| 20260503023646 | 69 | 17 | 3.5 | 9.6 | 0.00 | 0.00 | 0.68 | 41 | 1017.9 |
| 20260503023146 | 69 | 4 | 5.2 | 8.7 | 0.00 | 0.00 | 0.68 | 42 | 1017.9 |
| 20260503022647 | 69 | 336 | 2.6 | 7.8 | 0.00 | 0.00 | 0.68 | 42 | 1017.6 |
| 20260503022147 | 69 | 329 | 5.2 | 8.7 | 0.00 | 0.00 | 0.68 | 41 | 1017.6 |
| 20260503021646 | 69 | 27 | 7.0 | 9.6 | 0.00 | 0.00 | 0.68 | 41 | 1017.6 |
| 20260503021148 | 69 | 11 | 7.8 | 11.3 | 0.00 | 0.00 | 0.68 | 41 | 1017.9 |
| 20260503020647 | 69 | 14 | 5.2 | 8.7 | 0.00 | 0.00 | 0.68 | 41 | 1017.6 |
| 20260503020146 | 69 | 25 | 6.1 | 9.6 | 0.00 | 0.00 | 0.68 | 42 | 1017.6 |
| 20260503015647 | 69 | 356 | 6.1 | 8.7 | 0.00 | 0.00 | 0.68 | 42 | 1017.3 |
| 20260503015147 | 69 | 1 | 5.2 | 9.6 | 0.00 | 0.00 | 0.68 | 41 | 1017.3 |
| 20260503014647 | 69 | 338 | 6.1 | 8.7 | 0.00 | 0.00 | 0.68 | 41 | 1017.3 |
| 20260503014146 | 70 | 47 | 6.1 | 7.8 | 0.00 | 0.00 | 0.68 | 40 | 1017.3 |
| 20260503013646 | 69 | 317 | 3.5 | 6.1 | 0.00 | 0.00 | 0.68 | 42 | 1017.3 |
| 20260503013147 | 70 | 337 | 4.3 | 7.8 | 0.00 | 0.00 | 0.68 | 42 | 1017.3 |
| 20260503012646 | 70 | 341 | 2.6 | 7.0 | 0.00 | 0.00 | 0.68 | 42 | 1017.3 |
| 20260503012147 | 70 | 1 | 3.5 | 6.1 | 0.00 | 0.00 | 0.68 | 42 | 1017.3 |
| 20260503011646 | 70 | 317 | 2.6 | 7.8 | 0.00 | 0.00 | 0.68 | 42 | 1017.3 |
| 20260503011146 | 70 | 0 | 0.9 | 6.1 | 0.00 | 0.00 | 0.68 | 42 | 1016.9 |
| 20260503010647 | 70 | 353 | 5.2 | 8.7 | 0.00 | 0.00 | 0.68 | 41 | 1016.9 |
| 20260503010146 | 70 | 326 | 6.1 | 6.1 | 0.00 | 0.00 | 0.68 | 40 | 1016.9 |
| 20260503005646 | 70 | 5 | 4.3 | 9.6 | 0.00 | 0.00 | 0.68 | 40 | 1016.6 |
| 20260503005146 | 70 | 11 | 5.2 | 6.1 | 0.00 | 0.00 | 0.68 | 40 | 1016.6 |
| 20260503004646 | 70 | 4 | 3.5 | 9.6 | 0.00 | 0.00 | 0.68 | 40 | 1016.6 |
| 20260503004146 | 70 | 307 | 3.5 | 9.6 | 0.00 | 0.00 | 0.68 | 40 | 1016.6 |
| 20260503003646 | 71 | 330 | 4.3 | 11.3 | 0.00 | 0.00 | 0.68 | 41 | 1016.3 |
| 20260503003146 | 71 | 356 | 1.7 | 6.1 | 0.00 | 0.00 | 0.68 | 41 | 1016.3 |
| 20260503002647 | 71 | 349 | 3.5 | 7.8 | 0.00 | 0.00 | 0.68 | 40 | 1015.9 |
| 20260503002147 | 71 | 25 | 3.5 | 6.1 | 0.00 | 0.00 | 0.68 | 40 | 1015.9 |
| 20260503001646 | 71 | 2 | 2.6 | 11.3 | 0.00 | 0.00 | 0.68 | 39 | 1015.9 |
| 20260503001147 | 71 | 29 | 6.1 | 8.7 | 0.00 | 0.00 | 0.68 | 39 | 1015.9 |
| 20260503000648 | 71 | 355 | 4.3 | 9.6 | 0.00 | 0.00 | 0.68 | 38 | 1015.9 |
| 20260503000146 | 72 | 336 | 4.3 | 13.0 | 0.00 | 0.00 | 0.68 | 38 | 1015.9 |
| 20260502235646 | 72 | 353 | 6.1 | 12.2 | 0.00 | 0.00 | 0.68 | 38 | 1015.9 |
| 20260502235146 | 72 | 301 | 4.3 | 9.6 | 0.00 | 0.00 | 0.68 | 38 | 1015.6 |
| 20260502234647 | 72 | 359 | 6.1 | 13.0 | 0.00 | 0.00 | 0.68 | 37 | 1015.6 |
| 20260502234146 | 72 | 8 | 3.5 | 10.4 | 0.00 | 0.00 | 0.68 | 37 | 1015.2 |
| 20260502233647 | 72 | 337 | 3.5 | 9.6 | 0.00 | 0.00 | 0.68 | 37 | 1015.2 |
| 20260502233146 | 72 | 349 | 7.0 | 9.6 | 0.00 | 0.00 | 0.68 | 38 | 1015.2 |
| 20260502232647 | 72 | 1 | 3.5 | 10.4 | 0.00 | 0.00 | 0.68 | 37 | 1015.2 |
| 20260502232146 | 73 | 6 | 3.5 | 10.4 | 0.00 | 0.00 | 0.68 | 37 | 1015.6 |
| 20260502231646 | 73 | 332 | 7.0 | 10.4 | 0.00 | 0.00 | 0.68 | 36 | 1015.2 |
| 20260502231147 | 73 | 337 | 5.2 | 8.7 | 0.00 | 0.00 | 0.68 | 36 | 1015.2 |
| 20260502230646 | 73 | 321 | 3.5 | 7.0 | 0.00 | 0.00 | 0.68 | 37 | 1015.2 |
| 20260502230146 | 73 | 8 | 9.6 | 11.3 | 0.00 | 0.00 | 0.68 | 37 | 1014.9 |
| 20260502225648 | 73 | 331 | 6.1 | 11.3 | 0.00 | 0.00 | 0.68 | 37 | 1015.2 |
| 20260502225146 | 73 | 22 | 9.6 | 13.0 | 0.00 | 0.00 | 0.68 | 37 | 1014.9 |
| 20260502224647 | 73 | 350 | 4.3 | 13.0 | 0.00 | 0.00 | 0.68 | 37 | 1015.2 |
| 20260502224146 | 73 | 19 | 5.2 | 9.6 | 0.00 | 0.00 | 0.68 | 38 | 1014.9 |
| 20260502223646 | 73 | 312 | 4.3 | 7.0 | 0.00 | 0.00 | 0.68 | 38 | 1014.9 |
| 20260502223146 | 73 | 345 | 3.5 | 9.6 | 0.00 | 0.00 | 0.68 | 37 | 1014.9 |
| 20260502222646 | 73 | 315 | 3.5 | 10.4 | 0.00 | 0.00 | 0.68 | 38 | 1014.9 |
| 20260502222146 | 73 | 338 | 4.3 | 7.8 | 0.00 | 0.00 | 0.68 | 38 | 1014.6 |
| 20260502221646 | 72 | 5 | 6.1 | 8.7 | 0.00 | 0.00 | 0.68 | 37 | 1014.9 |
| 20260502221146 | 72 | 5 | 6.1 | 8.7 | 0.00 | 0.00 | 0.68 | 37 | 1014.9 |
| 20260502220646 | 73 | 342 | 5.2 | 11.3 | 0.00 | 0.00 | 0.68 | 38 | 1014.9 |
| 20260502220146 | 73 | 22 | 6.1 | 13.0 | 0.00 | 0.00 | 0.68 | 37 | 1014.9 |
| 20260502215646 | 73 | 22 | 7.8 | 13.0 | 0.00 | 0.00 | 0.68 | 37 | 1014.9 |
| 20260502215146 | 73 | 13 | 6.1 | 12.2 | 0.00 | 0.00 | 0.68 | 38 | 1014.9 |
| 20260502214646 | 73 | 334 | 10.4 | 13.0 | 0.00 | 0.00 | 0.68 | 38 | 1014.9 |
| 20260502214146 | 73 | 305 | 5.2 | 13.9 | 0.00 | 0.00 | 0.68 | 38 | 1014.9 |
| 20260502213646 | 73 | 337 | 5.2 | 9.6 | 0.00 | 0.00 | 0.68 | 39 | 1014.9 |
| 20260502213146 | 72 | 341 | 5.2 | 13.0 | 0.00 | 0.00 | 0.68 | 37 | 1014.9 |
| 20260502212646 | 73 | 26 | 9.6 | 10.4 | 0.00 | 0.00 | 0.68 | 38 | 1014.9 |
| 20260502212146 | 73 | 334 | 7.0 | 13.9 | 0.00 | 0.00 | 0.68 | 40 | 1014.9 |
| 20260502211647 | 73 | 8 | 7.0 | 12.2 | 0.00 | 0.00 | 0.68 | 41 | 1014.6 |
| 20260502211146 | 73 | 354 | 3.5 | 13.9 | 0.00 | 0.00 | 0.68 | 39 | 1014.6 |
| 20260502210646 | 73 | 2 | 7.8 | 12.2 | 0.00 | 0.00 | 0.68 | 40 | 1014.9 |
| 20260502210147 | 72 | 330 | 6.1 | 13.0 | 0.00 | 0.00 | 0.68 | 40 | 1014.9 |
| 20260502205647 | 73 | 339 | 7.0 | 15.6 | 0.00 | 0.00 | 0.68 | 40 | 1014.9 |
| 20260502205147 | 72 | 320 | 11.3 | 14.8 | 0.00 | 0.00 | 0.68 | 42 | 1014.9 |
| 20260502204646 | 73 | 46 | 10.4 | 12.2 | 0.00 | 0.00 | 0.68 | 42 | 1014.9 |
| 20260502204147 | 72 | 353 | 10.4 | 17.4 | 0.00 | 0.00 | 0.68 | 42 | 1014.9 |
| 20260502203647 | 72 | 15 | 11.3 | 13.9 | 0.00 | 0.00 | 0.68 | 44 | 1014.9 |
| 20260502203146 | 73 | 35 | 7.0 | 12.2 | 0.00 | 0.00 | 0.68 | 43 | 1014.9 |
| 20260502202646 | 73 | 340 | 6.1 | 13.9 | 0.00 | 0.00 | 0.68 | 45 | 1014.6 |
| 20260502202147 | 72 | 353 | 6.1 | 7.8 | 0.00 | 0.00 | 0.68 | 47 | 1014.9 |
| 20260502201646 | 72 | 339 | 11.3 | 12.2 | 0.00 | 0.00 | 0.68 | 49 | 1014.9 |
| 20260502201146 | 72 | 347 | 6.1 | 14.8 | 0.00 | 0.00 | 0.68 | 49 | 1014.9 |
| 20260502200646 | 72 | 16 | 4.3 | 16.5 | 0.00 | 0.00 | 0.68 | 49 | 1015.2 |
| 20260502200147 | 72 | 352 | 7.0 | 13.0 | 0.00 | 0.00 | 0.68 | 51 | 1015.2 |
| 20260502195646 | 72 | 331 | 7.8 | 14.8 | 0.00 | 0.00 | 0.68 | 53 | 1015.2 |
| 20260502195146 | 72 | 339 | 4.3 | 12.2 | 0.00 | 0.00 | 0.68 | 53 | 1015.2 |
| 20260502194646 | 72 | 342 | 4.3 | 13.0 | 0.00 | 0.00 | 0.68 | 53 | 1015.2 |
| 20260502194149 | 71 | 331 | 6.1 | 12.2 | 0.00 | 0.00 | 0.68 | 53 | 1015.2 |
| 20260502193647 | 71 | 358 | 4.3 | 20.0 | 0.00 | 0.00 | 0.68 | 55 | 1015.2 |
| 20260502193146 | 72 | 1 | 8.7 | 13.9 | 0.00 | 0.00 | 0.68 | 53 | 1015.6 |
| 20260502192646 | 72 | 11 | 6.1 | 15.6 | 0.00 | 0.00 | 0.68 | 55 | 1015.6 |
| 20260502192147 | 71 | 50 | 1.7 | 10.4 | 0.00 | 0.00 | 0.68 | 57 | 1015.6 |
| 20260502191647 | 71 | 11 | 6.1 | 14.8 | 0.00 | 0.00 | 0.68 | 56 | 1015.2 |
| 20260502191146 | 71 | 352 | 7.0 | 15.6 | 0.00 | 0.00 | 0.68 | 55 | 1015.2 |
| 20260502190647 | 72 | 310 | 12.2 | 13.9 | 0.00 | 0.00 | 0.68 | 56 | 1015.2 |
| 20260502190146 | 71 | 12 | 4.3 | 7.8 | 0.00 | 0.00 | 0.68 | 58 | 1015.6 |
| 20260502185646 | 71 | 344 | 6.1 | 12.2 | 0.00 | 0.00 | 0.68 | 59 | 1015.6 |
| 20260502185146 | 71 | 10 | 7.8 | 13.0 | 0.00 | 0.00 | 0.68 | 56 | 1015.6 |
| 20260502184646 | 71 | 332 | 6.1 | 8.7 | 0.00 | 0.00 | 0.68 | 58 | 1015.2 |
| 20260502184146 | 70 | 309 | 7.0 | 10.4 | 0.00 | 0.00 | 0.68 | 59 | 1015.2 |
| 20260502183646 | 71 | 42 | 6.1 | 18.2 | 0.00 | 0.00 | 0.68 | 58 | 1015.6 |
| 20260502183146 | 71 | 28 | 3.5 | 9.6 | 0.00 | 0.00 | 0.68 | 59 | 1015.6 |
| 20260502182647 | 71 | 334 | 4.3 | 13.0 | 0.00 | 0.00 | 0.68 | 60 | 1015.6 |
| 20260502182146 | 70 | 334 | 5.2 | 11.3 | 0.00 | 0.00 | 0.68 | 60 | 1015.6 |
| 20260502181647 | 71 | 326 | 7.8 | 13.0 | 0.00 | 0.00 | 0.68 | 58 | 1015.6 |
| 20260502181147 | 70 | 21 | 8.7 | 13.0 | 0.00 | 0.00 | 0.68 | 59 | 1015.6 |
| 20260502180646 | 70 | 1 | 5.2 | 13.0 | 0.00 | 0.00 | 0.68 | 59 | 1015.6 |
| 20260502180146 | 69 | 12 | 7.0 | 16.5 | 0.00 | 0.00 | 0.68 | 59 | 1015.6 |